Weather History for Marrakech, Morocco

Change the Weather History Date:

Monday, January 20, 2014

  Actual Average Record
Temperature  
Mean Temperature 54 °F -  
Max Temperature 58 °F 66 °F 75 °F (2008)
Min Temperature 50 °F 44 °F 37 °F (2003)
Degree Days  
Heating Degree Days 11    
Growing Degree Days 4 (Base 50)    
Moisture  
Dew Point 48 °F    
Average Humidity 79    
Maximum Humidity 100    
Minimum Humidity 53    
Precipitation  
Precipitation 0.00 in 0.05 in - ()
Sea Level Pressure  
Sea Level Pressure 30.09 in    
Wind  
Wind Speed 4 mph ()    
Max Wind Speed 9 mph    
Max Gust Speed -    
Visibility 5.9 miles    
Events Rain    
Averages and records for this station are not official NWS values.
T = Trace of Precipitation, MM = Missing Value Source: Averaged Metar Reports

Daily Weather History Graph

Daily Weather History Graph

Search for Another Location

Airport:

Trip Planner

Search our weather history database for the weather conditions in past years. The results will help you decide how hot, cold, wet, or windy it might be!

Date:

Astronomy

Jan. 20, 2014 Rise Set
Actual Time 7:30 AM WET 5:55 PM WET
Civil Twilight 7:04 AM WET 6:21 PM WET
Nautical Twilight 6:35 AM WET 6:51 PM WET
Astronomical Twilight 6:06 AM WET 7:20 PM WET
Moon 9:58 PM WET (1/20) 9:41 AM WET (1/20)
Length of Visible Light 11h 16m
Length of Day
10h 24m
Waning Gibbous, 84% of the Moon is Illuminated
Jan 20
Waning Gibbous
Jan 24
Last Quarter
Jan 30
New
Feb 6
First Quarter
Feb 14
Full

Hourly Weather History & Observations

Time (WET) Temp. Dew Point Humidity Pressure Visibility Wind Dir Wind Speed Gust Speed Precip Events Conditions
12:00 AM 53.6 °F 50.0 °F 88% 30.06 in 5.0 mi Variable 2.3 mph - N/A   Mostly Cloudy
12:30 AM 53.6 °F 50.0 °F 88% 30.06 in 5.0 mi NE 3.5 mph - N/A   Mostly Cloudy
1:00 AM 53.6 °F 50.0 °F 88% 30.06 in 6.2 mi Calm Calm - N/A   Mostly Cloudy
1:30 AM 53.6 °F 50.0 °F 88% 30.06 in 6.2 mi East 3.5 mph - N/A   Mostly Cloudy
2:00 AM 53.6 °F 50.0 °F 88% 30.06 in 6.2 mi South 2.3 mph - N/A   Mostly Cloudy
2:30 AM 53.6 °F 50.0 °F 88% 30.06 in 6.2 mi South 2.3 mph - N/A   Mostly Cloudy
3:00 AM 53 °F 51 °F 90% 30.07 in 6 mi South 3.5 mph - -   Overcast
3:00 AM 53.6 °F 51.8 °F 94% 30.06 in 6.2 mi SSE 4.6 mph - N/A   Mostly Cloudy
3:30 AM 51.8 °F 51.8 °F 100% 30.06 in 4.3 mi ESE 2.3 mph - N/A Rain Light Rain
4:00 AM 51.8 °F 51.8 °F 100% 30.06 in 3.7 mi ENE 1.2 mph - N/A Rain Light Rain
4:30 AM 51.8 °F 51.8 °F 100% 30.06 in 6.2 mi Variable 2.3 mph - N/A   Mostly Cloudy
5:00 AM 51.8 °F 51.8 °F 100% 30.06 in 6.2 mi Variable 1.2 mph - N/A   Mostly Cloudy
5:30 AM 51.8 °F 50.0 °F 94% 30.06 in 6.2 mi Variable 2.3 mph - N/A   Mostly Cloudy
5:46 AM 52 °F 51 °F 96% 30.07 in 5 mi North 4.6 mph - -   Partly Cloudy
6:00 AM 51.8 °F 50.0 °F 94% 30.06 in 5.0 mi North 4.6 mph - N/A   Mostly Cloudy
6:30 AM 51.8 °F 50.0 °F 94% 30.06 in 5.0 mi NNE 3.5 mph - N/A   Mostly Cloudy
7:00 AM 51.8 °F 50.0 °F 94% 30.06 in 5.0 mi NE 3.5 mph - N/A   Mostly Cloudy
7:30 AM 51.8 °F 50.0 °F 94% 30.06 in 5.0 mi NE 5.8 mph - N/A   Mostly Cloudy
8:00 AM 51.8 °F 48.2 °F 88% 30.09 in 6.2 mi NE 5.8 mph - N/A   Mostly Cloudy
8:30 AM 51.8 °F 50.0 °F 94% 30.09 in 6.2 mi ENE 5.8 mph - N/A   Mostly Cloudy
9:00 AM 52 °F 50 °F 90% 30.12 in 6 mi NE 4.6 mph - -   Clear
9:00 AM 51.8 °F 50.0 °F 94% 30.09 in 6.2 mi ENE 4.6 mph - N/A   Mostly Cloudy
9:30 AM 51.8 °F 50.0 °F 94% 30.12 in 6.2 mi ENE 5.8 mph - N/A   Overcast
10:00 AM 53.6 °F 50.0 °F 88% 30.12 in 6.2 mi East 6.9 mph - N/A   Overcast
10:30 AM 53.6 °F 48.2 °F 82% 30.15 in 6.2 mi East 5.8 mph - N/A   Overcast
11:00 AM 53.6 °F 48.2 °F 82% 30.15 in 6.2 mi ENE 8.1 mph - N/A   Overcast
11:30 AM 55.4 °F 46.4 °F 72% 30.12 in 6.2 mi ENE 9.2 mph - N/A   Overcast
12:00 PM 56 °F 48 °F 67% 30.13 in 6 mi NE 9.2 mph - -   Mostly Cloudy
12:00 PM 55.4 °F 46.4 °F 72% 30.12 in 6.2 mi NE 8.1 mph - N/A   Mostly Cloudy
12:30 PM 55.4 °F 48.2 °F 77% 30.12 in 6.2 mi ENE 6.9 mph - N/A   Mostly Cloudy
1:00 PM 57.2 °F 48.2 °F 72% 30.12 in 6.2 mi ENE 8.1 mph - N/A   Mostly Cloudy
1:30 PM 57.2 °F 48.2 °F 72% 30.09 in 6.2 mi ENE 8.1 mph - N/A   Mostly Cloudy
2:00 PM 57.2 °F 48.2 °F 72% 30.09 in 6.2 mi ENE 8.1 mph - N/A   Mostly Cloudy
2:30 PM 59.0 °F 48.2 °F 67% 30.06 in 6.2 mi East 9.2 mph - N/A   Mostly Cloudy
3:00 PM 58 °F 47 °F 57% 30.07 in 6 mi ENE 8.1 mph - -   Mostly Cloudy
3:00 PM 59.0 °F 46.4 °F 63% 30.06 in 6.2 mi ENE 8.1 mph - N/A   Mostly Cloudy
3:30 PM 59.0 °F 46.4 °F 63% 30.09 in 6.2 mi NNE 8.1 mph - N/A   Mostly Cloudy
4:00 PM 57.2 °F 46.4 °F 67% 30.09 in 6.2 mi NE 9.2 mph - N/A   Mostly Cloudy
4:30 PM 59.0 °F 44.6 °F 59% 30.09 in 6.2 mi NNE 6.9 mph - N/A   Mostly Cloudy
5:00 PM 57.2 °F 44.6 °F 63% 30.09 in 6.2 mi NNE 6.9 mph - N/A   Mostly Cloudy
5:30 PM 57.2 °F 44.6 °F 63% 30.12 in 6.2 mi NNE 6.9 mph - N/A   Mostly Cloudy
6:00 PM 57 °F 44 °F 53% 30.12 in 6 mi NNE 4.6 mph - -   Overcast
6:00 PM 57.2 °F 44.6 °F 63% 30.12 in 6.2 mi NNE 4.6 mph - N/A   Mostly Cloudy
6:30 PM 57.2 °F 44.6 °F 63% 30.12 in 6.2 mi NNE 5.8 mph - N/A   Mostly Cloudy
7:00 PM 57.2 °F 46.4 °F 67% 30.12 in 6.2 mi Variable 2.3 mph - N/A   Mostly Cloudy
7:30 PM 55.4 °F 44.6 °F 67% 30.12 in 6.2 mi Variable 2.3 mph - N/A   Mostly Cloudy
8:00 PM 55.4 °F 44.6 °F 67% 30.12 in 6.2 mi NE 5.8 mph - N/A   Mostly Cloudy
8:30 PM 55.4 °F 44.6 °F 67% 30.12 in 6.2 mi NNE 5.8 mph - N/A   Mostly Cloudy
9:00 PM 55 °F 43 °F 55% 30.14 in 6 mi NE 5.8 mph - -   Mostly Cloudy
9:00 PM 55.4 °F 42.8 °F 63% 30.12 in 6.2 mi NE 5.8 mph - N/A   Mostly Cloudy
9:30 PM 53.6 °F 44.6 °F 72% 30.12 in 6.2 mi East 4.6 mph - N/A   Mostly Cloudy
10:00 PM 51.8 °F 44.6 °F 76% 30.15 in 6.2 mi ENE 2.3 mph - N/A   Scattered Clouds
10:30 PM 50.0 °F 44.6 °F 82% 30.12 in 6.2 mi ENE 4.6 mph - N/A   Scattered Clouds
11:00 PM 50.0 °F 44.6 °F 82% 30.12 in 6.2 mi NE 4.6 mph - N/A   Scattered Clouds
11:30 PM 50.0 °F 44.6 °F 82% 30.12 in 6.2 mi NE 5.8 mph - N/A   Scattered Clouds